Location: Newark
(34.3481°N, 134.0494°E)
Time: 02:34:05
(UTC+00:00)

Vanguard 3 - Pass Details

Date: 24 January 2020
Orbit: 508 x 3263 km, 33.3° (Epoch: 25 February)

Event Time Altitude Azimuth Distance (km) Brightness Sun altitude
Rises 11:01:12 0° 266° (W) 7,230 13.1 -32.2°
Reaches altitude 10° 11:06:11 10° 266° (W) 6,168 12.4 -33.2°
Maximum altitude 11:25:32 87° 180° (S) 2,565 9.4 -37.2°
Enters shadow 11:28:04 69° 99° (E) 2,532 9.2 -37.7°
